Location: Chuathbaluk
(61.5726°N, 159.2454°W)
Time: 17:42:42
(UTC+00:00)

NOAA 15 - Pass Details

Date: 22 January 2021
Orbit: 798 x 812 km, 98.7° (Epoch: 05 March)

Event Time Altitude Azimuth Distance (km) Brightness Sun altitude
Rises 17:20:06 0° 20° (NNE) 3,343 7.9 -13.4°
Reaches altitude 10° 17:22:51 10° 33° (NNE) 2,409 7.3 -13.1°
Maximum altitude 17:27:16 26° 89° (E) 1,561 7.0 -12.6°
Drops below altitude 10° 17:31:40 10° 146° (SE) 2,401 7.9 -12.1°
Sets 17:34:24 0° 159° (SSE) 3,329 8.4 -11.8°
